Skip Page Navigation
NASA JPL Caltech
NASA Logo - Jet Propulsion Laboratory + View the NASA Portal
+ Center for Near-Earth Object Studies
JPL Home Earth Solar System Stars & Galaxies Technology
JPL Solar System Dynamics
BODIES ORBITS EPHEMERIDES TOOLS PHYSICAL DATA DISCOVERY FAQ SITE MAP
JPL Small-Body Database Browser
Search: [ help ]  
216742 (2005 LX5)
Classification: Main-belt Asteroid          SPK-ID: 2216742
Ephemeris | Orbit Diagram | Orbital Elements | Mission Design | Physical Parameters | Discovery Circumstances ]

[ show orbit diagram ]
Orbital Elements at Epoch 2459200.5 (2020-Dec-17.0) TDB
Reference: JPL 23 (heliocentric ecliptic J2000)
 Element Value Uncertainty (1-sigma)   Units 
e .1666896942703215 4.9399e-08  
a 2.551460158444522 1.5344e-08 au
q 2.126158044690498 1.3302e-07 au
i 14.53557687944588 4.6165e-06 deg
node 94.24393920471596 2.6304e-05 deg
peri 181.2459135664384 3.3541e-05 deg
M 276.7684663129534 2.3031e-05 deg
tp 2459544.665243807010
(2021-Nov-26.16524381)
9.6299e-05 TDB
period 1488.61233575714
4.08
1.3428e-05
3.676e-08
d
yr
n .2418359645104622 2.1815e-09 deg/d
Q 2.976762272198545 1.7902e-08 au
  Orbit Determination Parameters
   # obs. used (total)      552  
   data-arc span      5836 days (15.98 yr)  
   first obs. used      2005-05-09  
   last obs. used      2021-05-01  
   planetary ephem.      DE441  
   SB-pert. ephem.      SB441-N16  
   condition code      0  
   norm. resid. RMS      .50165  
   source      ORB  
   producer      Otto Matic  
   solution date      2021-May-04 10:41:59  

Additional Information
 Earth MOID = 1.10796 au 
 Jupiter MOID = 2.15174 au 
 T_jup = 3.376 
[ show covariance matrix ]

Ephemeris | Orbit Diagram | Orbital Elements | Mission Design | Physical Parameters | Discovery Circumstances ]

Physical Parameter Table
Parameter Symbol Value Units Sigma Reference Notes
absolute magnitude H 16.1   n/a MPO376474  

216742 (2005 LX5)          Discovered 2005-Jun-03 by CSS at Catalina
Reference: 20090707/Numbers.arcLast Updated: 2009-07-09
Ephemeris | Orbit Diagram | Orbital Elements | Mission Design | Physical Parameters | Discovery Circumstances ]
ABOUT SSD CREDITS/AWARDS PRIVACY/COPYRIGHT GLOSSARY LINKS
FirstGov 2021-Jun-20 03:04 UT
(server date/time)  
NASA Home Page
Site Manager:   Ryan S. Park
Webmaster  Alan B. Chamberlin